TimeWEST,TemperatureF,Dew PointF,Humidity,Sea Level PressureIn,VisibilityMPH,Wind Direction,Wind SpeedMPH,Gust SpeedMPH,PrecipitationIn,Events,Conditions,WindDirDegrees,DateUTC
12:00 AM,44.6,41.0,87,30.15,5.0,SW,4.6,-,N/A,,Scattered Clouds,220,2014-04-03 23:00:00
1:00 AM,42,39,86,30.20,5,South,4.6,,,,Partly Cloudy,190,2014-04-04 00:00:00
1:00 AM,42.8,39.2,87,30.15,5.0,South,4.6,-,N/A,,Scattered Clouds,190,2014-04-04 00:00:00
2:00 AM,42.8,39.2,87,30.15,5.0,South,4.6,-,N/A,,Scattered Clouds,190,2014-04-04 01:00:00
3:00 AM,42.8,39.2,87,30.15,5.0,SSW,4.6,-,N/A,,Partly Cloudy,210,2014-04-04 02:00:00
5:00 AM,42.8,37.4,81,30.15,5.0,South,4.6,-,N/A,,Partly Cloudy,170,2014-04-04 04:00:00
6:00 AM,42.8,39.2,87,30.15,5.0,South,3.5,-,N/A,,Partly Cloudy,190,2014-04-04 05:00:00
7:00 AM,40,35,78,30.25,6,South,4.6,,,,Scattered Clouds,180,2014-04-04 06:00:00
7:00 AM,39.2,35.6,87,30.18,6.2,South,4.6,-,N/A,,Scattered Clouds,180,2014-04-04 06:00:00
8:00 AM,41.0,37.4,87,30.18,6.2,SSE,4.6,-,N/A,,Scattered Clouds,150,2014-04-04 07:00:00
9:00 AM,48.2,41.0,76,30.21,6.2,SSW,2.3,-,N/A,,Scattered Clouds,200,2014-04-04 08:00:00
10:00 AM,52,42,60,30.23,6,Calm,Calm,,,,Scattered Clouds,,2014-04-04 09:00:00
10:00 AM,51.8,42.8,71,30.21,6.2,Calm,Calm,-,N/A,,Scattered Clouds,0,2014-04-04 09:00:00
11:00 AM,55.4,39.2,54,30.21,6.2,West,2.3,-,N/A,,Scattered Clouds,280,2014-04-04 10:00:00
12:00 PM,57.2,37.4,48,30.21,6.2,NW,2.3,-,N/A,,Scattered Clouds,310,2014-04-04 11:00:00
1:00 PM,60,37,31,30.18,6,NW,2.3,,,,Scattered Clouds,320,2014-04-04 12:00:00
1:00 PM,60.8,37.4,42,30.21,6.2,NW,2.3,-,N/A,,Scattered Clouds,320,2014-04-04 12:00:00
2:00 PM,62.6,37.4,39,30.18,5.0,West,3.5,-,N/A,,Scattered Clouds,280,2014-04-04 13:00:00
3:00 PM,62.6,41.0,45,30.18,6.2,West,2.3,-,N/A,,Scattered Clouds,270,2014-04-04 14:00:00
4:00 PM,64,41,31,30.15,6,NW,6.9,,,,Scattered Clouds,320,2014-04-04 15:00:00
4:00 PM,64.4,41.0,42,30.18,6.2,NW,6.9,-,N/A,,Scattered Clouds,320,2014-04-04 15:00:00
5:00 PM,64.4,39.2,40,30.18,6.2,NW,5.8,-,N/A,,Scattered Clouds,310,2014-04-04 16:00:00
6:00 PM,62.6,44.6,52,30.18,6.2,NW,4.6,-,N/A,,Scattered Clouds,320,2014-04-04 17:00:00
7:00 PM,60,44,45,30.19,6,NW,9.2,,,Fog,Shallow Fog,320,2014-04-04 18:00:00
7:00 PM,59.0,44.6,59,30.21,6.2,NW,9.2,-,N/A,,Scattered Clouds,320,2014-04-04 18:00:00
8:00 PM,55.4,44.6,67,30.21,-9999.0,NW,3.5,-,N/A,,Clear,320,2014-04-04 19:00:00
9:00 PM,53.6,46.4,77,30.21,-9999.0,SE,2.3,-,N/A,,Clear,130,2014-04-04 20:00:00
10:00 PM,51,45,72,30.25,6,SE,3.5,,,,Partly Cloudy,140,2014-04-04 21:00:00
10:00 PM,51.8,44.6,76,30.24,-9999.0,SE,3.5,-,N/A,,Clear,140,2014-04-04 21:00:00
11:00 PM,50.0,44.6,82,30.24,-9999.0,SE,4.6,-,N/A,,Clear,130,2014-04-04 22:00:00